Location: Peterborough
(44.3091°N, 78.3197°W)
Time: 13:12:46
(UTC-04:00)

SR - Pass Details

Date: 28 March 2023
Orbit: 581 x 867 km, 66.7° (Epoch: 02 June)

Event Time Altitude Azimuth Distance (km) Brightness Sun altitude
Exits shadow 04:59:41 10° 322° (NW) 1,950 ? -21.8°
Maximum altitude 04:59:57 10° 326° (NW) 1,944 ? -21.7°
Sets 05:05:01 0° 18° (NNE) 2,813 ? -20.9°
